Regional Weather Roundup
Issued by NWS

Home | Current Version | Previous Version | Text Only | Print | Product List | Glossary On
Versions: 1 2 3 4 5 6 7 8 9 10 11 12 13 14 15 16 17 18 19 20 21 22 23 24 25 26 27 28 29 30 31 32 33 34 35 36 37 38 39 40 41 42 43 44 45 46 47 48 49 50
000
ASUS43 KOAX 211702
RWRNE

WEATHER ROUNDUP FOR NEBRASKA
NATIONAL WEATHER SERVICE OMAHA NE
1200 PM CDT THU SEP 21 2017

NOTES: SATELLITE DATA IS BEING USED TO AUGMENT CLOUD COVER ABOVE
       12000 FEET.
       "FAIR" INDICATES FEW OR NO CLOUDS BELOW 12,000 FEET WITH NO
       SIGNIFICANT WEATHER AND/OR OBSTRUCTIONS TO VISIBILITY.


NEZ001>004-019>022-054>056-211800-
NEBRASKA PANHANDLE

CITY           SKY/WX    TMP DP  RH WIND       PRES   REMARKS
SCOTTSBLUFF    SUNNY     67  44  43 E7        29.73F
ALLIANCE       SUNNY     70  45  40 VRB7      29.73F
CHADRON        SUNNY     78  41  26 S12       29.67S
GORDON         FAIR      72  48  41 S7        29.71F
KIMBALL        SUNNY     80  36  20 SW8       29.77F
SIDNEY         SUNNY     78  38  23 SE7       29.75F
$$

NEZ057>060-069>072-079>082-211800-
SOUTHWEST NEBRASKA

CITY           SKY/WX    TMP DP  RH WIND       PRES   REMARKS
NORTH PLATTE   SUNNY     79  52  38 S10       29.74F
IMPERIAL       SUNNY     78  40  25 S10       29.74F
LEXINGTON      SUNNY     84  49  30 S21G28    29.76F
MCCOOK         SUNNY     82  49  31 SE14      29.75F
OGALLALA       SUNNY     76  45  33 S6        29.73F
$$

NEZ005>010-023>029-035>040-094-211800-
NORTH CENTRAL NEBRASKA

CITY           SKY/WX    TMP DP  RH WIND       PRES   REMARKS
VALENTINE      SUNNY     79  55  43 S20G28    29.71F
AINSWORTH      SUNNY     76  59  55 S15G24    29.73F
BROKEN BOW     SUNNY     78  57  48 SE14G23   29.76F
O`NEILL        SUNNY     76  64  66 SE15G21   29.76F
ORD            SUNNY     76  59  55 SE10      29.76F
THEDFORD       SUNNY     78  57  47 S18       29.73F
$$

NEZ041-046>049-061>064-073>077-083>087-211800-
SOUTH CENTRAL NEBRASKA

CITY           SKY/WX    TMP DP  RH WIND       PRES   REMARKS
GRAND ISLAND   SUNNY     81  67  62 S14       29.79F
AURORA         SUNNY     82  65  55 S14G20    29.79F
HASTINGS       SUNNY     84  60  44 S10       29.79F
HEBRON         MOSUNNY   87  71  58 S10G17    29.81F HX  92
HOLDREGE       SUNNY     81  52  36 SE17      29.76F
KEARNEY        SUNNY     84  57  39 S18G26    29.77F
YORK           SUNNY     84  66  54 S14       29.80F
$$

NEZ011>018-030>034-042>045-211800-
NORTHEAST NEBRASKA

CITY           SKY/WX    TMP DP  RH WIND       PRES   REMARKS
NORFOLK        PTSUNNY   78  69  73 SE14      29.77F
ALBION         MOSUNNY   74  68  80 SE9G16    29.79F
BLAIR          PTSUNNY   82  72  71 SE14      29.84S
COLUMBUS       SUNNY     83  70  64 SE13G18   29.79F
FREMONT        PTSUNNY   83  71  66 S16G24    29.82F
TEKAMAH        MOSUNNY   83  71  67 S15G23    29.81F
WAYNE          PTSUNNY   78  74  88 S18G25    29.80F
$$

NEZ050>053-065>068-078-088>093-211800-
SOUTHEAST NEBRASKA

CITY           SKY/WX    TMP DP  RH WIND       PRES   REMARKS
LINCOLN        SUNNY     87  71  58 S21       29.81F HX  93
OMAHA EPPLEY   MOSUNNY   85  72  65 S17       29.83F HX  91
BEATRICE       MOSUNNY   86  73  63 S14       29.83S HX  93
FALLS CITY     SUNNY     86  72  62 S16       29.86S HX  92
NEBRASKA CITY  SUNNY     85  75  71 S16G24    29.85F HX  93
PLATTSMOUTH    PTSUNNY   84  73  70 S14G21    29.85F HX  91
$$

NEZ044-045-051>053-067-211800-
OMAHA AREA

CITY           SKY/WX    TMP DP  RH WIND       PRES   REMARKS
OMAHA EPPLEY   MOSUNNY   85  72  65 S17       29.83F HX  91
BLAIR          PTSUNNY   82  72  71 SE14      29.84S
FREMONT        PTSUNNY   83  71  66 S16G24    29.82F
MILLARD        PTSUNNY   85  74  68 SE12G20   29.83F HX  93
OFFUTT AFB     MOSUNNY   85  72  65 SE17      29.83F HX  91
PLATTSMOUTH    PTSUNNY   84  73  70 S14G21    29.85F HX  91
WAHOO          FAIR      85  70  61 S15       29.82F
$$




USA.gov is the U.S. government's official web portal to all federal, state and local government web resources and services.